TimePST,TemperatureF,Dew PointF,Humidity,Sea Level PressureIn,VisibilityMPH,Wind Direction,Wind SpeedMPH,Gust SpeedMPH,PrecipitationIn,Events,Conditions,WindDirDegrees,DateUTC
12:56 AM,46.0,12.9,26,30.22,10.0,East,12.7,20.7,N/A,,Clear,100,2013-01-18 08:56:00
1:56 AM,46.9,10.9,23,30.22,10.0,East,11.5,-,N/A,,Clear,100,2013-01-18 09:56:00
2:56 AM,46.0,10.9,24,30.21,10.0,ESE,16.1,24.2,N/A,,Clear,110,2013-01-18 10:56:00
3:56 AM,46.0,10.0,23,30.19,10.0,ESE,17.3,21.9,N/A,,Clear,110,2013-01-18 11:56:00
4:56 AM,45.0,10.9,25,30.19,10.0,ESE,15.0,-,N/A,,Clear,110,2013-01-18 12:56:00
5:56 AM,44.1,12.0,27,30.20,10.0,ESE,12.7,-,N/A,,Clear,110,2013-01-18 13:56:00
6:56 AM,43.0,10.9,27,30.21,10.0,ESE,15.0,-,N/A,,Clear,120,2013-01-18 14:56:00
7:56 AM,43.0,12.0,28,30.22,10.0,ESE,13.8,-,N/A,,Clear,120,2013-01-18 15:56:00
8:56 AM,46.0,12.9,26,30.23,10.0,ESE,15.0,-,N/A,,Clear,120,2013-01-18 16:56:00
9:56 AM,48.0,14.0,26,30.23,10.0,ESE,13.8,-,N/A,,Clear,120,2013-01-18 17:56:00
10:56 AM,48.9,14.0,25,30.23,10.0,ESE,13.8,24.2,N/A,,Clear,110,2013-01-18 18:56:00
11:56 AM,50.0,12.9,23,30.22,10.0,ESE,12.7,20.7,N/A,,Clear,120,2013-01-18 19:56:00
12:56 PM,51.1,12.0,21,30.20,10.0,ESE,11.5,-,N/A,,Clear,120,2013-01-18 20:56:00
1:56 PM,51.1,12.9,22,30.19,10.0,ESE,12.7,20.7,N/A,,Clear,110,2013-01-18 21:56:00
2:56 PM,51.1,12.0,21,30.19,10.0,ESE,11.5,18.4,N/A,,Clear,110,2013-01-18 22:56:00
3:56 PM,51.1,12.9,22,30.20,10.0,ESE,9.2,-,N/A,,Clear,120,2013-01-18 23:56:00
4:56 PM,50.0,12.0,22,30.20,10.0,ESE,10.4,18.4,N/A,,Clear,110,2013-01-19 00:56:00
5:56 PM,48.0,12.0,24,30.23,10.0,ESE,11.5,-,N/A,,Clear,110,2013-01-19 01:56:00
6:56 PM,48.0,12.0,24,30.23,10.0,ESE,10.4,-,N/A,,Clear,110,2013-01-19 02:56:00
7:56 PM,48.0,10.0,22,30.24,10.0,ESE,9.2,-,N/A,,Clear,110,2013-01-19 03:56:00
8:56 PM,46.9,10.9,23,30.23,10.0,ESE,12.7,19.6,N/A,,Clear,120,2013-01-19 04:56:00
9:56 PM,46.0,10.0,23,30.23,10.0,ESE,10.4,19.6,N/A,,Clear,110,2013-01-19 05:56:00
10:56 PM,45.0,12.0,26,30.22,10.0,ESE,13.8,-,N/A,,Clear,110,2013-01-19 06:56:00
11:56 PM,43.0,12.0,28,30.22,10.0,ESE,11.5,-,N/A,,Clear,110,2013-01-19 07:56:00